Flag for Germany Weather past 2 weeks in Krefeld, North Rhine-Westphalia, Germany

Now
39 °F

Light rain. Fog.


Feels Like: 35 °F
Forecast: 36 / 42 °F
Wind: 6 mph from South

Location: Monchengladbach Airport

Current Time: Jan 26, 2015 at 11:27:19 AM

Latest Report: Jan 26, 2015 at 10:50 AM


Visibility: 2 mi

Pressure: 30.15 "Hg

Humidity: 100%

Dew point: 39 °F

Location of KrefeldLocation

Historic Weather in Krefeld — Graph

°F

Krefeld temperature yesterday

Maximum temperature yesterday: 39 °F (at 1:20 PM)
Minimum temperature yesterday: 34 °F (at 7:50 AM)
Average temperature yesterday: 37 °F

Past Weeks' High & Low Weather Summary

 TemperatureHumidityPressure
High54 °F (Jan 13, 11:20 AM)100% (Jan 17, 8:20 AM)30.42 "Hg (Jan 17, 8:20 AM)
Low28 °F (Jan 19, 8:20 AM)61% (Jan 17, 2:20 PM)29.42 "Hg (Jan 15, 2:50 PM)
Average39 °F81%29.95 "Hg
* Reported Jan 11 10:20 AM — Jan 26 10:20 AM, Krefeld, Weather by CustomWeather, © 2014

Note: Actual official high and low records may vary slightly from our data, if they occured in-between our weather recording intervals... More about our weather records

Advertising

Krefeld weather history for previous 24 hours

 ConditionsComfort  
Time TempWeatherWind HumidityBarometerVisibility
10:20 AM
Jan 26
37 °FLight rain. Fog.6 mph100%30.15 "Hg1 mi
9:50 AM37 °FDrizzle. Fog.6 mph100%30.15 "Hg1 mi
9:20 AM37 °FDrizzle. Fog.5 mph100%30.15 "Hg1 mi
8:50 AM37 °FDrizzle. Fog.5 mph100%30.18 "Hg1 mi
8:20 AM37 °FDrizzle. Fog.5 mph100%30.18 "Hg1 mi
7:50 AM37 °FDrizzle. Fog.6 mph100%30.18 "Hg1 mi
7:50 PM
Jan 25
37 °FPartly cloudy.6 mph100%30.39 "Hg4 mi
7:20 PM37 °FPartly cloudy.6 mph93%30.39 "Hg4 mi
6:50 PM37 °FFog.6 mph93%30.39 "Hg3 mi
6:20 PM37 °FDrizzle. Fog.6 mph93%30.39 "Hg3 mi
5:50 PM37 °FDrizzle. Fog.6 mph93%30.39 "Hg3 mi
5:20 PM37 °FDrizzle. Fog.6 mph93%30.36 "Hg3 mi
4:50 PM37 °FDrizzle. Fog.7 mph93%30.36 "Hg2 mi
4:20 PM37 °FDrizzle. Fog.5 mph93%30.39 "Hg3 mi
3:50 PM37 °FDrizzle. Fog.5 mph93%30.39 "Hg3 mi
3:20 PM37 °FFog.6 mph93%30.39 "Hg3 mi
2:50 PM37 °FFog.5 mph93%30.39 "Hg3 mi
2:20 PM37 °FFog.5 mph93%30.39 "Hg3 mi
1:50 PM39 °FFog.5 mph87%30.39 "Hg3 mi
1:20 PM39 °FFog.5 mph87%30.39 "Hg3 mi
12:50 PM37 °FFog.5 mph93%30.39 "Hg3 mi
12:20 PM37 °FFog.3 mph93%30.42 "Hg3 mi
11:50 AM37 °FFog.6 mph87%30.42 "Hg3 mi
11:20 AM36 °FFog.5 mph93%30.42 "Hg3 mi
Weather by CustomWeather, © 2014

See weather overviewHow to use our weather pages